Time,TemperatureF,DewpointF,PressureIn,WindDirection,WindDirectionDegrees,WindSpeedMPH,WindSpeedGustMPH,Humidity,HourlyPrecipIn,Conditions,Clouds,dailyrainin,SoftwareType,DateUTC
2013-01-06 00:11:00,64.0,63.7,30.04,NE,45,0.0,-999.0,99,-99.99,,,0.00,Acu-Link.com,2013-01-06 05:11:00,
2013-01-06 00:26:00,64.8,64.5,30.04,NE,45,2.2,-999.0,99,-99.99,,,0.00,Acu-Link.com,2013-01-06 05:26:00,
2013-01-06 00:41:00,64.9,64.6,30.04,NNE,22,2.7,-999.0,99,-99.99,,,0.00,Acu-Link.com,2013-01-06 05:41:00,
2013-01-06 00:56:00,64.9,64.6,30.03,NNE,22,0.0,-999.0,99,-99.99,,,0.00,Acu-Link.com,2013-01-06 05:56:00,
2013-01-06 01:11:00,64.9,64.6,30.03,NNE,22,0.0,-999.0,99,-99.99,,,0.00,Acu-Link.com,2013-01-06 06:11:00,
2013-01-06 01:26:00,64.6,64.3,30.03,NNE,22,0.0,-999.0,99,-99.99,,,0.00,Acu-Link.com,2013-01-06 06:26:00,
2013-01-06 01:41:00,64.8,64.5,30.02,NNE,22,0.0,-999.0,99,-99.99,,,0.00,Acu-Link.com,2013-01-06 06:41:00,
2013-01-06 01:56:00,64.2,63.9,30.02,NNE,22,0.0,-999.0,99,-99.99,,,0.00,Acu-Link.com,2013-01-06 06:56:00,
2013-01-06 02:11:00,64.2,63.9,30.01,NNE,22,0.0,-999.0,99,-99.99,,,0.00,Acu-Link.com,2013-01-06 07:11:00,
2013-01-06 02:27:00,64.6,64.3,30.01,NNE,22,0.0,-999.0,99,-99.99,,,0.00,Acu-Link.com,2013-01-06 07:27:00,
2013-01-06 02:42:00,64.6,64.3,30.00,NNE,22,2.7,-999.0,99,-99.99,,,0.00,Acu-Link.com,2013-01-06 07:42:00,
2013-01-06 02:57:00,64.9,64.6,30.00,NNE,22,2.7,-999.0,99,-99.99,,,0.00,Acu-Link.com,2013-01-06 07:57:00,
2013-01-06 03:12:00,65.1,64.8,30.00,NNE,22,1.7,-999.0,99,-99.99,,,0.00,Acu-Link.com,2013-01-06 08:12:00,
2013-01-06 03:27:00,65.1,64.8,30.00,NNE,22,0.0,-999.0,99,-99.99,,,0.00,Acu-Link.com,2013-01-06 08:27:00,
2013-01-06 03:42:00,65.1,64.8,29.99,NNE,22,0.0,-999.0,99,-99.99,,,0.00,Acu-Link.com,2013-01-06 08:42:00,
2013-01-06 03:57:00,64.9,64.6,29.98,NNE,22,0.0,-999.0,99,-99.99,,,0.00,Acu-Link.com,2013-01-06 08:57:00,
2013-01-06 04:12:00,64.9,64.6,29.98,NNE,22,0.0,-999.0,99,-99.99,,,0.00,Acu-Link.com,2013-01-06 09:12:00,
2013-01-06 04:27:00,65.3,65.0,29.98,NNE,22,0.0,-999.0,99,-99.99,,,0.00,Acu-Link.com,2013-01-06 09:27:00,
2013-01-06 04:42:00,65.3,65.0,29.98,NNE,22,0.0,-999.0,99,-99.99,,,0.00,Acu-Link.com,2013-01-06 09:42:00,
2013-01-06 04:58:00,64.9,64.6,29.98,ESE,112,0.0,-999.0,99,-99.99,,,0.00,Acu-Link.com,2013-01-06 09:58:00,
2013-01-06 05:13:00,64.9,64.6,29.97,ESE,112,0.0,-999.0,99,-99.99,,,0.00,Acu-Link.com,2013-01-06 10:13:00,
2013-01-06 05:28:00,65.3,65.0,29.99,NNE,22,1.7,-999.0,99,-99.99,,,0.00,Acu-Link.com,2013-01-06 10:28:00,
2013-01-06 05:43:00,65.3,65.0,29.99,NNE,22,0.0,-999.0,99,-99.99,,,0.00,Acu-Link.com,2013-01-06 10:43:00,
2013-01-06 05:58:00,65.5,65.2,29.98,NNE,22,0.0,-999.0,99,-99.99,,,0.00,Acu-Link.com,2013-01-06 10:58:00,
2013-01-06 06:14:00,65.7,65.4,29.99,NNE,22,0.0,-999.0,99,-99.99,,,0.00,Acu-Link.com,2013-01-06 11:14:00,
2013-01-06 06:29:00,65.8,65.5,29.99,NNE,22,0.0,-999.0,99,-99.99,,,0.00,Acu-Link.com,2013-01-06 11:29:00,
2013-01-06 06:44:00,66.0,65.7,29.99,NNE,22,0.0,-999.0,99,-99.99,,,0.00,Acu-Link.com,2013-01-06 11:44:00,
2013-01-06 06:59:00,66.4,66.1,29.99,NNE,22,0.0,-999.0,99,-99.99,,,0.00,Acu-Link.com,2013-01-06 11:59:00,
2013-01-06 07:14:00,66.9,66.6,30.00,WNW,292,2.7,-999.0,99,-99.99,,,0.00,Acu-Link.com,2013-01-06 12:14:00,
2013-01-06 07:29:00,67.8,67.5,30.01,WNW,292,2.2,-999.0,99,-99.99,,,0.00,Acu-Link.com,2013-01-06 12:29:00,
2013-01-06 07:44:00,68.2,67.9,30.02,WNW,292,1.7,-999.0,99,-99.99,,,0.00,Acu-Link.com,2013-01-06 12:44:00,
2013-01-06 08:00:00,70.0,69.7,30.01,WNW,292,0.0,-999.0,99,-99.99,,,0.00,Acu-Link.com,2013-01-06 13:00:00,
2013-01-06 08:15:00,71.6,71.3,30.02,WNW,292,0.0,-999.0,99,-99.99,,,0.00,Acu-Link.com,2013-01-06 13:15:00,
2013-01-06 08:30:00,70.3,70.0,30.02,WNW,292,1.7,-999.0,99,-99.99,,,0.00,Acu-Link.com,2013-01-06 13:30:00,
2013-01-06 08:45:00,73.9,72.4,30.02,WNW,292,1.7,-999.0,95,-99.99,,,0.00,Acu-Link.com,2013-01-06 13:45:00,
2013-01-06 09:01:00,76.6,72.8,30.02,East,90,4.7,-999.0,88,-99.99,,,0.00,Acu-Link.com,2013-01-06 14:01:00,
2013-01-06 09:16:00,77.4,72.9,30.02,SSE,157,4.7,-999.0,86,-99.99,,,0.00,Acu-Link.com,2013-01-06 14:16:00,
2013-01-06 09:31:00,78.3,72.3,30.02,ESE,112,6.3,-999.0,82,-99.99,,,0.00,Acu-Link.com,2013-01-06 14:31:00,
2013-01-06 09:46:00,77.0,71.4,30.02,SSE,157,5.8,-999.0,83,-99.99,,,0.00,Acu-Link.com,2013-01-06 14:46:00,
2013-01-06 10:01:00,76.8,71.2,30.02,SSE,157,5.8,-999.0,83,-99.99,,,0.00,Acu-Link.com,2013-01-06 15:01:00,
2013-01-06 10:16:00,78.4,71.3,30.01,SSE,157,5.8,-999.0,79,-99.99,,,0.00,Acu-Link.com,2013-01-06 15:16:00,
2013-01-06 10:31:00,78.4,70.2,30.01,ESE,112,4.2,-999.0,76,-99.99,,,0.00,Acu-Link.com,2013-01-06 15:31:00,
2013-01-06 10:46:00,78.8,70.2,30.00,SSE,157,3.2,-999.0,75,-99.99,,,0.00,Acu-Link.com,2013-01-06 15:46:00,
2013-01-06 11:01:00,79.7,69.9,30.00,ESE,112,6.8,-999.0,72,-99.99,,,0.00,Acu-Link.com,2013-01-06 16:01:00,
2013-01-06 11:17:00,79.5,70.1,29.99,SSE,157,11.9,-999.0,73,-99.99,,,0.00,Acu-Link.com,2013-01-06 16:17:00,
2013-01-06 11:32:00,79.9,68.8,29.99,SSW,202,8.9,-999.0,69,-99.99,,,0.00,Acu-Link.com,2013-01-06 16:32:00,
2013-01-06 11:47:00,79.2,69.8,29.99,SSE,157,9.4,-999.0,73,-99.99,,,0.00,Acu-Link.com,2013-01-06 16:47:00,
2013-01-06 12:02:00,80.8,70.1,29.99,South,180,10.4,-999.0,70,-99.99,,,0.00,Acu-Link.com,2013-01-06 17:02:00,
2013-01-06 12:17:00,81.0,69.8,29.97,SSE,157,5.8,-999.0,69,-99.99,,,0.00,Acu-Link.com,2013-01-06 17:17:00,
2013-01-06 12:32:00,81.3,70.1,29.97,South,180,6.3,-999.0,69,-99.99,,,0.00,Acu-Link.com,2013-01-06 17:32:00,
2013-01-06 12:47:00,81.9,70.3,29.95,ESE,112,6.3,-999.0,68,-99.99,,,0.00,Acu-Link.com,2013-01-06 17:47:00,
2013-01-06 13:02:00,81.9,70.3,29.95,South,180,8.3,-999.0,68,-99.99,,,0.00,Acu-Link.com,2013-01-06 18:02:00,
2013-01-06 13:17:00,80.8,69.7,29.94,SSW,202,8.3,-999.0,69,-99.99,,,0.00,Acu-Link.com,2013-01-06 18:17:00,
2013-01-06 13:35:00,81.1,69.9,29.93,SSE,157,6.3,-999.0,69,-99.99,,,0.00,Acu-Link.com,2013-01-06 18:35:00,
2013-01-06 13:51:00,80.6,70.3,29.94,ESE,112,10.9,-999.0,71,-99.99,,,0.00,Acu-Link.com,2013-01-06 18:51:00,
2013-01-06 14:13:00,80.1,70.2,29.93,SSE,157,9.9,-999.0,72,-99.99,,,0.00,Acu-Link.com,2013-01-06 19:13:00,
2013-01-06 14:28:00,80.2,70.7,29.93,ESE,112,3.2,-999.0,73,-99.99,,,0.00,Acu-Link.com,2013-01-06 19:28:00,
2013-01-06 14:58:00,79.7,70.3,29.93,East,90,11.9,-999.0,73,-99.99,,,0.00,Acu-Link.com,2013-01-06 19:58:00,
2013-01-06 15:15:00,80.6,70.7,29.92,ESE,112,5.3,-999.0,72,-99.99,,,0.00,Acu-Link.com,2013-01-06 20:15:00,
2013-01-06 15:30:00,79.9,70.9,29.91,South,180,5.8,-999.0,74,-99.99,,,0.00,Acu-Link.com,2013-01-06 20:30:00,
2013-01-06 15:45:00,80.8,70.9,29.91,South,180,12.5,-999.0,72,-99.99,,,0.00,Acu-Link.com,2013-01-06 20:45:00,
2013-01-06 16:01:00,79.3,71.1,29.91,SSE,157,5.3,-999.0,76,-99.99,,,0.00,Acu-Link.com,2013-01-06 21:01:00,
2013-01-06 16:16:00,78.6,71.5,29.91,South,180,9.4,-999.0,79,-99.99,,,0.00,Acu-Link.com,2013-01-06 21:16:00,
2013-01-06 16:31:00,79.0,70.4,29.90,South,180,6.8,-999.0,75,-99.99,,,0.00,Acu-Link.com,2013-01-06 21:31:00,
2013-01-06 16:46:00,78.4,70.2,29.91,South,180,9.4,-999.0,76,-99.99,,,0.00,Acu-Link.com,2013-01-06 21:46:00,
2013-01-06 17:01:00,78.1,70.7,29.91,South,180,6.3,-999.0,78,-99.99,,,0.00,Acu-Link.com,2013-01-06 22:01:00,
2013-01-06 17:17:00,77.5,70.8,29.91,South,180,6.3,-999.0,80,-99.99,,,0.00,Acu-Link.com,2013-01-06 22:17:00,
2013-01-06 17:32:00,76.5,70.6,29.92,ESE,112,5.3,-999.0,82,-99.99,,,0.00,Acu-Link.com,2013-01-06 22:32:00,
2013-01-06 17:47:00,75.9,70.7,29.91,SSW,202,5.3,-999.0,84,-99.99,,,0.00,Acu-Link.com,2013-01-06 22:47:00,
2013-01-06 18:02:00,75.6,70.4,29.91,South,180,3.7,-999.0,84,-99.99,,,0.00,Acu-Link.com,2013-01-06 23:02:00,
2013-01-06 18:18:00,75.2,70.4,29.91,SSE,157,5.8,-999.0,85,-99.99,,,0.00,Acu-Link.com,2013-01-06 23:18:00,
2013-01-06 18:33:00,74.8,70.3,29.93,South,180,1.7,-999.0,86,-99.99,,,0.00,Acu-Link.com,2013-01-06 23:33:00,
2013-01-06 18:48:00,74.5,70.4,29.92,South,180,2.7,-999.0,87,-99.99,,,0.00,Acu-Link.com,2013-01-06 23:48:00,
2013-01-06 19:03:00,73.9,70.4,29.92,South,180,2.7,-999.0,89,-99.99,,,0.00,Acu-Link.com,2013-01-07 00:03:00,
2013-01-06 19:18:00,73.6,70.1,29.93,SE,135,2.7,-999.0,89,-99.99,,,0.00,Acu-Link.com,2013-01-07 00:18:00,
2013-01-06 19:34:00,73.0,70.2,29.94,SE,135,0.0,-999.0,91,-99.99,,,0.00,Acu-Link.com,2013-01-07 00:34:00,
2013-01-06 19:49:00,72.7,70.2,29.94,SE,135,0.0,-999.0,92,-99.99,,,0.00,Acu-Link.com,2013-01-07 00:49:00,
2013-01-06 20:14:00,72.3,70.2,29.94,SE,135,1.1,-999.0,93,-99.99,,,0.00,Acu-Link.com,2013-01-07 01:14:00,
2013-01-06 20:29:00,71.6,70.1,29.94,SSE,157,1.1,-999.0,95,-99.99,,,0.00,Acu-Link.com,2013-01-07 01:29:00,
2013-01-06 20:46:00,71.2,70.0,29.94,SSE,157,2.2,-999.0,96,-99.99,,,0.00,Acu-Link.com,2013-01-07 01:46:00,
2013-01-06 21:03:00,71.1,70.2,29.95,SSE,157,0.0,-999.0,97,-99.99,,,0.00,Acu-Link.com,2013-01-07 02:03:00,
2013-01-06 21:18:00,70.3,70.0,29.95,SSE,157,0.0,-999.0,99,-99.99,,,0.00,Acu-Link.com,2013-01-07 02:18:00,
2013-01-06 21:33:00,70.3,70.0,29.95,SSE,157,0.0,-999.0,99,-99.99,,,0.00,Acu-Link.com,2013-01-07 02:33:00,
2013-01-06 21:50:00,70.0,69.7,29.96,SSE,157,0.0,-999.0,99,-99.99,,,0.00,Acu-Link.com,2013-01-07 02:50:00,
2013-01-06 22:06:00,69.8,69.5,29.96,SSE,157,0.0,-999.0,99,-99.99,,,0.00,Acu-Link.com,2013-01-07 03:06:00,
2013-01-06 22:22:00,69.4,69.1,29.96,SSE,157,0.0,-999.0,99,-99.99,,,0.00,Acu-Link.com,2013-01-07 03:22:00,
2013-01-06 22:37:00,69.1,68.8,29.96,SSE,157,0.0,-999.0,99,-99.99,,,0.00,Acu-Link.com,2013-01-07 03:37:00,
2013-01-06 22:52:00,68.9,68.6,29.96,SSE,157,0.0,-999.0,99,-99.99,,,0.00,Acu-Link.com,2013-01-07 03:52:00,
2013-01-06 23:07:00,68.7,68.4,29.96,SW,225,1.1,-999.0,99,-99.99,,,0.00,Acu-Link.com,2013-01-07 04:07:00,
2013-01-06 23:22:00,68.9,68.6,29.96,SW,225,0.0,-999.0,99,-99.99,,,0.00,Acu-Link.com,2013-01-07 04:22:00,
2013-01-06 23:37:00,69.3,69.0,29.96,West,270,2.7,-999.0,99,-99.99,,,0.00,Acu-Link.com,2013-01-07 04:37:00,
2013-01-06 23:52:00,69.4,69.1,29.96,West,270,2.7,-999.0,99,-99.99,,,0.00,Acu-Link.com,2013-01-07 04:52:00,